Miscellaneous Local Product
Issued by NWS Hastings, NE

Home | Current Version | Previous Version | Text Only | Print | Product List | Glossary Off
Versions: 1 2 3 4 5 6 7 8 9 10 11 12 13 14 15 16 17 18 19 20 21 22 23 24 25 26 27 28 29 30 31 32 33 34 35 36 37 38 39 40 41 42 43 44 45 46 47 48 49 50

934
AXUS43 KGID 160302
MISGRI

GID CWA HOURLY WEATHER ROUNDUP
NATIONAL WEATHER SERVICE HASTINGS NE
900 PM CST SUN JAN 15 2017

NOTE: "FAIR" INDICATES FEW OR NO CLOUDS BELOW 12,000 FEET WITH NO
SIGNIFICANT WEATHER AND/OR OBSTRUCTIONS TO VISIBILITY.

...SOUTH CENTRAL NEBRASKA...

CITY           SKY/WX    TMP DP  RH WIND       PRES   REMARKS
GRAND ISLAND   CLOUDY    30  30 100 SE6       30.09F FOG     WCI  24
HASTINGS       CLOUDY    30  28  92 SE6       30.09F FOG     WCI  24
KEARNEY        CLOUDY    30  27  86 CALM      30.07F
ORD            FRZ RAIN  31  28  89 E6        30.07F FOG     WCI  25
YORK           CLOUDY    30  30 100 CALM      30.11F
AURORA         CLOUDY    30  29  98 E5        30.09F FOG     WCI  25
LEXINGTON      MIX PCPN  31  30  94 SE3       30.06S
HOLDREGE       MIX PCPN  31  29  96 E6        30.06F WCI  25
HEBRON         MIX PCPN  31  31  98 E6        30.11F WCI  25

...NEBRASKA PANHANDLE...

CITY           SKY/WX    TMP DP  RH WIND       PRES   REMARKS
CHADRON        CLOUDY    22  19  89 CALM      30.03S
ALLIANCE       CLOUDY    28  23  81 N5        29.98S WCI  23
SCOTTSBLUFF    CLOUDY    29  24  82 N6        30.00R WCI  23
SIDNEY         CLOUDY    30  27  88 CALM      29.98S

...WESTERN AND NORTH CENTRAL NEBRASKA...

CITY           SKY/WX    TMP DP  RH WIND       PRES   REMARKS
VALENTINE      CLOUDY    31  22  69 S3        30.04S
AINSWORTH      CLOUDY    32  26  78 S3        30.04S
ONEILL         CLOUDY    32  26  76 S6        30.08S WCI  27
BROKEN BOW     CLOUDY    31  30  96 SE5       30.04S FOG     WCI  26
IMPERIAL       FRZ RAIN  31  29  92 SE5       30.01S WCI  26
NORTH PLATTE   FRZ RAIN  31  29  92 E5        30.03S FOG     WCI  26
MCCOOK         MIX PCPN  30  30 100 SE6       30.05R FOG     WCI  24

...EASTERN NEBRASKA...

CITY           SKY/WX    TMP DP  RH WIND       PRES   REMARKS
NORFOLK        MIX PCPN  29  26  89 SE5       30.11F WCI  24
SO SIOUX CITY  CLOUDY    33  25  72 S8        30.17S WCI  26
TEKAMAH        FRZ RAIN  32  29  88 SE6       30.17F FOG     WCI  26
COLUMBUS       CLOUDY    30  28  93 SE3       30.13F
ALBION         MIX PCPN  31  29  93 SE6       30.10F WCI  25
OMAHA EPPLEY   FRZ RAIN  32  28  85 E5        30.16F WCI  27
OFFUTT AFB     CLOUDY    32  32 100 CALM      30.15F
MILLARD        CLOUDY    33  32  94 CALM      30.15F
LINCOLN        FRZ RAIN  31  30  96 E5        30.16S FOG     WCI  26
NEBRASKA CITY  CLOUDY    32  32 100 SE5       30.15S WCI  27
BEATRICE       MIX PCPN  32  31  96 E5        30.13F WCI  27
FALLS CITY     MIX PCPN  32  31  96 E7        30.15F WCI  26

...NORTHERN KANSAS...

CITY           SKY/WX    TMP DP  RH WIND       PRES   REMARKS
GOODLAND       CLOUDY    30  29  96 E6        29.98F WCI  24
HILL CITY      CLOUDY    30  30 100 E6        30.06F FOG     WCI  24
NORTON         MIX PCPN  30  27  86 NE5       30.05F WCI  25
PHILLIPSBURG   MIX PCPN  32  32 100 E6        30.08F WCI  26
SMITH CENTER   CLOUDY    30  28  93 NE6       30.09F FOG     WCI  24
HAYS           CLOUDY    30  29  96 NE8       30.07R WCI  22
RUSSELL        CLOUDY    30  29  96 NE6       30.06R FOG     WCI  24
CONCORDIA      CLOUDY    31  31 100 E8        30.09F WCI  23
SALINA         CLOUDY    32  30  92 NE8       30.09F FOG     WCI  25
TOPEKA         CLOUDY    33  30  88 E7        30.13S WCI  27



USA.gov is the U.S. government's official web portal to all federal, state and local government web resources and services.